Location: Passau
(48.5830°N, 13.4830°E)
Time: 05:11:32
(UTC+02:00)

Vanguard 1 - Pass Details

Date: 28 July 2021
Orbit: 652 x 3831 km, 34.3° (Epoch: 16 September)

Event Time Altitude Azimuth Distance (km) Brightness Sun altitude
Rises 13:48:33 0° 236° (SW) 3,494 13.2 59.4°
Reaches altitude 10° 13:50:58 10° 224° (SW) 2,798 13.0 59.3°
Maximum altitude 13:56:48 30° 165° (SSE) 2,271 12.9 59.0°
Drops below altitude 10° 14:06:07 10° 111° (ESE) 4,575 13.6 58.4°
Sets 14:11:24 0° 103° (ESE) 6,160 14.1 58.0°
